Location: Ariel
(45.9570°N, 122.5700°W)
Time: 10:30:53
(UTC-07:00)

Vanguard 3 - Pass Details

Date: 28 August 2019
Orbit: 508 x 3262 km, 33.3° (Epoch: 17 October)

Event Time Altitude Azimuth Distance (km) Brightness Sun altitude
Rises 16:53:44 0° 240° (WSW) 5,951 12.7 30.4°
Reaches altitude 10° 16:58:48 10° 232° (SW) 4,455 12.3 29.6°
Maximum altitude 17:08:06 31° 177° (S) 2,206 9.8 28.1°
Drops below altitude 10° 17:13:56 10° 117° (ESE) 2,744 9.5 27.1°
Sets 17:16:18 0° 106° (ESE) 3,421 9.9 26.7°
